• In Netherlands
  • List of Countries
  • For 7 days
  • Water Temperature
  • Satellite Maps
  • Weather Map
  • Weather Widgets
  • user-avatar
    Login

    Hourly Weather Ropotamo

    Today, 26 April, Wednesday

    Time Temperature Precipitation Wind Pressure Humidity
    00:00 +5°C° 0 mm 3 mps 762 mmHg 76%
    01:00 +5°C° 0 mm 3 mps 762 mmHg 75%
    02:00 +5°C° 0 mm 2 mps 762 mmHg 74%
    03:00 +5°C° 0 mm 2 mps 762 mmHg 73%
    04:00 +5°C° 0 mm 2 mps 762 mmHg 72%
    05:00 +6°C° 0 mm 1 mps 762 mmHg 71%
    06:00 +9°C° 0 mm 1 mps 762 mmHg 65%
    07:00 +10°C° 0 mm 2 mps 762 mmHg 59%
    08:00 +14°C° 0 mm 2 mps 762 mmHg 54%
    09:00 +16°C° 0 mm 2 mps 762 mmHg 53%
    10:00 +17°C° 0 mm 3 mps 762 mmHg 51%
    11:00 +18°C° 0 mm 3 mps 762 mmHg 49%
    12:00 +19°C° 0 mm 3 mps 761 mmHg 50%
    13:00 +19°C° 0 mm 4 mps 761 mmHg 51%
    14:00 +20°C° 0 mm 4 mps 761 mmHg 52%
    15:00 +19°C° 0 mm 4 mps 761 mmHg 56%
    16:00 +19°C° 0 mm 4 mps 760 mmHg 59%
    17:00 +18°C° 0 mm 4 mps 760 mmHg 63%
    18:00 +15°C° 0 mm 4 mps 760 mmHg 68%
    19:00 +13°C° 0 mm 4 mps 760 mmHg 73%
    20:00 +11°C° 0 mm 3 mps 760 mmHg 78%
    21:00 +10°C° 0 mm 3 mps 761 mmHg 78%
    22:00 +10°C° 0 mm 3 mps 761 mmHg 78%
    23:00 +9°C° 0 mm 3 mps 761 mmHg 79%

    Tomorrow, 27 April, Thursday

    Time Temperature Precipitation Wind Pressure Humidity
    00:00 +9°C° 0 mm 2 mps 761 mmHg 78%
    01:00 +9°C° 0 mm 2 mps 761 mmHg 77%
    02:00 +8°C° 0 mm 2 mps 760 mmHg 76%
    03:00 +8°C° 0 mm 2 mps 760 mmHg 76%
    04:00 +8°C° 0 mm 2 mps 760 mmHg 76%
    05:00 +9°C° 0 mm 1 mps 760 mmHg 76%
    06:00 +11°C° 0 mm 1 mps 760 mmHg 69%
    07:00 +14°C° 0 mm 1 mps 760 mmHg 63%
    08:00 +17°C° 0 mm 2 mps 760 mmHg 56%
    09:00 +18°C° 0 mm 2 mps 760 mmHg 54%
    10:00 +19°C° 0 mm 2 mps 760 mmHg 51%
    11:00 +21°C° 0 mm 3 mps 760 mmHg 49%
    12:00 +21°C° 0 mm 3 mps 760 mmHg 49%
    13:00 +21°C° 0 mm 3 mps 760 mmHg 49%
    14:00 +22°C° 0 mm 3 mps 760 mmHg 49%
    15:00 +21°C° 0 mm 3 mps 759 mmHg 53%
    16:00 +20°C° 0 mm 3 mps 759 mmHg 56%
    17:00 +20°C° 0 mm 3 mps 759 mmHg 60%
    18:00 +17°C° 0 mm 3 mps 759 mmHg 64%
    19:00 +14°C° 0 mm 3 mps 759 mmHg 69%
    20:00 +12°C° 0 mm 3 mps 759 mmHg 73%
    21:00 +11°C° 0 mm 3 mps 760 mmHg 73%
    22:00 +11°C° 0 mm 3 mps 760 mmHg 73%
    23:00 +10°C° 0 mm 2 mps 760 mmHg 73%

    Day after tomorrow, 28 April, Friday

    Time Temperature Precipitation Wind Pressure Humidity
    00:00 +10°C° 0 mm 2 mps 760 mmHg 73%
    01:00 +9°C° 0 mm 2 mps 759 mmHg 73%
    02:00 +10°C° 0 mm 1 mps 759 mmHg 73%
    03:00 +9°C° 0 mm 2 mps 759 mmHg 72%
    04:00 +9°C° 0 mm 2 mps 759 mmHg 71%
    05:00 +9°C° 0 mm 2 mps 758 mmHg 70%
    06:00 +12°C° 0 mm 2 mps 759 mmHg 65%
    07:00 +15°C° 0 mm 2 mps 759 mmHg 59%
    08:00 +18°C° 0 mm 2 mps 759 mmHg 54%
    09:00 +19°C° 0 mm 2 mps 759 mmHg 52%
    10:00 +21°C° 0 mm 3 mps 759 mmHg 50%
    11:00 +22°C° 0 mm 3 mps 759 mmHg 49%
    12:00 +22°C° 0 mm 4 mps 758 mmHg 49%
    13:00 +23°C° 0 mm 4 mps 758 mmHg 49%
    14:00 +23°C° 0 mm 4 mps 758 mmHg 49%
    15:00 +23°C° 0 mm 4 mps 757 mmHg 53%
    16:00 +22°C° 0 mm 4 mps 757 mmHg 57%
    17:00 +21°C° 0 mm 4 mps 756 mmHg 61%
    18:00 +19°C° 0 mm 4 mps 757 mmHg 64%
    19:00 +17°C° 0 mm 4 mps 757 mmHg 67%
    20:00 +14°C° 0 mm 4 mps 757 mmHg 70%
    21:00 +13°C° 0 mm 3 mps 757 mmHg 70%
    22:00 +13°C° 0 mm 3 mps 757 mmHg 70%
    23:00 +12°C° 0 mm 3 mps 757 mmHg 70%

    29 April, Saturday

    Time Temperature Precipitation Wind Pressure Humidity
    00:00 +12°C° 0 mm 3 mps 757 mmHg 69%
    01:00 +11°C° 0 mm 3 mps 756 mmHg 68%
    02:00 +11°C° 0 mm 3 mps 756 mmHg 67%
    03:00 +11°C° 0 mm 3 mps 756 mmHg 65%
    04:00 +11°C° 0 mm 3 mps 756 mmHg 63%
    05:00 +11°C° 0 mm 3 mps 756 mmHg 61%
    06:00 +13°C° 0 mm 3 mps 756 mmHg 59%
    07:00 +16°C° 0 mm 3 mps 756 mmHg 57%
    08:00 +18°C° 0 mm 3 mps 756 mmHg 55%
    09:00 +20°C° 0 mm 3 mps 756 mmHg 54%
    10:00 +21°C° 0 mm 3 mps 756 mmHg 53%
    11:00 +24°C° 0 mm 3 mps 755 mmHg 52%
    12:00 +25°C° 0 mm 3 mps 755 mmHg 52%
    13:00 +25°C° 0 mm 3 mps 755 mmHg 53%
    14:00 +26°C° 0 mm 3 mps 755 mmHg 53%
    15:00 +26°C° 0 mm 3 mps 754 mmHg 56%
    16:00 +26°C° 0 mm 3 mps 754 mmHg 58%
    17:00 +26°C° 0 mm 3 mps 754 mmHg 61%
    18:00 +22°C° 0 mm 4 mps 754 mmHg 64%
    19:00 +20°C° 0 mm 4 mps 754 mmHg 67%
    20:00 +17°C° 0 mm 4 mps 754 mmHg 70%
    21:00 +15°C° 0 mm 4 mps 755 mmHg 68%
    22:00 +14°C° 0 mm 3 mps 755 mmHg 66%
    23:00 +13°C° 0 mm 3 mps 755 mmHg 65%

    30 April, Sunday

    Time Temperature Precipitation Wind Pressure Humidity
    00:00 +13°C° 0 mm 3 mps 755 mmHg 65%
    01:00 +14°C° 0 mm 2 mps 755 mmHg 65%
    02:00 +13°C° 0 mm 2 mps 755 mmHg 65%
    03:00 +13°C° 0 mm 2 mps 755 mmHg 67%
    04:00 +12°C° 0 mm 3 mps 755 mmHg 69%
    05:00 +12°C° 0 mm 3 mps 756 mmHg 70%
    06:00 +13°C° 0 mm 3 mps 756 mmHg 71%
    07:00 +16°C° 0 mm 3 mps 757 mmHg 71%
    08:00 +17°C° 0 mm 4 mps 757 mmHg 71%
    09:00 +19°C° 0 mm 4 mps 757 mmHg 69%
    10:00 +20°C° 0 mm 4 mps 757 mmHg 67%
    11:00 +21°C° 0 mm 4 mps 758 mmHg 66%
    12:00 +21°C° 0 mm 4 mps 757 mmHg 66%
    13:00 +22°C° 0 mm 4 mps 757 mmHg 66%
    14:00 +22°C° 0 mm 4 mps 757 mmHg 67%
    15:00 +21°C° 0 mm 4 mps 757 mmHg 70%
    16:00 +21°C° 0 mm 4 mps 757 mmHg 73%
    17:00 +20°C° 0 mm 4 mps 757 mmHg 76%
    18:00 +18°C° 0 mm 3 mps 757 mmHg 81%
    19:00 +16°C° 0 mm 3 mps 758 mmHg 87%
    20:00 +15°C° 0 mm 2 mps 758 mmHg 92%
    21:00 +14°C° 0 mm 2 mps 758 mmHg 92%
    22:00 +13°C° 0 mm 3 mps 758 mmHg 92%
    23:00 +13°C° 0 mm 3 mps 758 mmHg 92%

    1 May, Monday

    Time Temperature Precipitation Wind Pressure Humidity
    00:00 +13°C° 0 mm 3 mps 758 mmHg 92%
    01:00 +12°C° 0 mm 3 mps 758 mmHg 92%
    02:00 +12°C° 0 mm 4 mps 758 mmHg 92%
    03:00 +11°C° 0 mm 4 mps 758 mmHg 92%
    04:00 +11°C° 0 mm 4 mps 758 mmHg 92%
    05:00 +10°C° 0 mm 4 mps 758 mmHg 92%
    06:00 +10°C° 0 mm 5 mps 758 mmHg 86%
    07:00 +13°C° 0 mm 5 mps 759 mmHg 81%
    08:00 +14°C° 0 mm 5 mps 759 mmHg 76%
    09:00 +15°C° 0 mm 6 mps 759 mmHg 72%
    10:00 +16°C° 0 mm 6 mps 759 mmHg 69%
    11:00 +17°C° 0 mm 6 mps 759 mmHg 65%
    12:00 +19°C° 0 mm 6 mps 759 mmHg 63%
    13:00 +19°C° 0 mm 6 mps 758 mmHg 61%
    14:00 +20°C° 0 mm 6 mps 758 mmHg 59%
    15:00 +19°C° 0 mm 6 mps 758 mmHg 63%
    16:00 +17°C° 0 mm 6 mps 758 mmHg 67%
    17:00 +17°C° 0 mm 5 mps 758 mmHg 70%
    18:00 +15°C° 0 mm 5 mps 759 mmHg 76%
    19:00 +13°C° 0 mm 5 mps 759 mmHg 83%
    20:00 +11°C° 0 mm 4 mps 759 mmHg 89%
    21:00 +11°C° 0 mm 4 mps 759 mmHg 89%
    22:00 +11°C° 0 mm 4 mps 759 mmHg 89%
    23:00 +10°C° 0 mm 4 mps 759 mmHg 89%
    Show more